START_TIME,STEP,MOV.,M6,t_acc.,M7,t_acc.,M19,t_acc.,H36,t_acc.
1979-07-23 06:00:26.670 ,0,1,0.,12.0,0.,12.0,0.,12.0,0.,12.0
1979-07-23 06:00:38.670 ,0,1,0.,12.0,0.,12.0,0.,12.0,0.,12.0
1979-07-23 06:00:50.670 ,3,1,0.,12.0,0.,12.0,0.,12.0,0.,12.0
1979-07-23 06:01:02.670 ,3,1,0.,12.0,0.,12.0,0.,12.0,0.,12.0
1979-07-23 06:01:14.670 ,7,1,0.,12.0,0.,12.0,0.,12.0,0.,12.0
1979-07-23 06:01:26.670 ,7,1,0.,12.0,0.,12.0,0.,12.0,0.,12.0
1979-07-23 06:01:38.670 ,4,1,0.,12.0,0.,12.0,0.,12.0,0.,12.0
1979-07-23 06:01:50.670 ,4,1,0.,12.0,0.,12.0,0.,12.0,0.,12.0
1979-07-23 06:02:02.670 ,0,1,0.,12.0,0.,12.0,0.,12.0,0.,12.0
1979-07-23 06:02:14.670 ,0,1,0.,12.0,0.,12.0,0.,12.0,0.,12.0
1979-07-23 06:02:26.670 ,3,1,0.,12.0,0.,12.0,0.,12.0,0.,12.0
1979-07-23 06:02:38.670 ,3,1,0.,12.0,0.,12.0,0.,12.0,0.,12.0
1979-07-23 06:02:50.670 ,7,1,0.,12.0,0.,12.0,0.,12.0,0.,12.0
1979-07-23 06:03:02.670 ,7,1,0.,12.0,0.,12.0,0.,12.0,0.,12.0
1979-07-23 06:03:14.670 ,4,1,0.,12.0,0.,12.0,0.,12.0,0.,12.0
1979-07-23 06:03:26.670 ,4,1,0.,12.0,0.,12.0,0.,12.0,0.,12.0
1979-07-23 06:03:38.670 ,0,1,0.,12.0,0.,12.0,0.,12.0,0.,12.0
1979-07-23 06:03:50.670 ,0,1,0.,12.0,0.,12.0,0.,12.0,0.,12.0
1979-07-23 06:04:02.670 ,3,1,0.,12.0,0.,12.0,0.,12.0,0.,12.0
1979-07-23 06:04:14.670 ,3,1,0.,12.0,0.,12.0,0.,12.0,0.,12.0
1979-07-23 06:04:26.670 ,7,1,0.,12.0,0.,12.0,0.,12.0,0.,12.0
1979-07-23 06:04:38.670 ,7,1,0.,12.0,0.,12.0,0.,12.0,0.,12.0
1979-07-23 06:04:50.670 ,4,1,1.,12.0,0.,12.0,0.,12.0,0.,12.0
1979-07-23 06:05:02.670 ,4,1,0.,12.0,0.,12.0,0.,12.0,0.,12.0
1979-07-23 06:05:14.670 ,0,1,0.,12.0,0.,12.0,0.,12.0,0.,12.0
1979-07-23 06:05:26.670 ,0,1,0.,12.0,0.,12.0,0.,12.0,0.,12.0
1979-07-23 06:05:38.670 ,0,0,0.,12.0,0.,12.0,0.,12.0,0.,12.0
1979-07-23 06:05:50.670 ,0,0,0.,12.0,0.,12.0,0.,12.0,0.,12.0
1979-07-23 06:06:02.670 ,0,0,0.,12.0,0.,12.0,0.,12.0,0.,12.0
1979-07-23 06:06:14.670 ,0,0,0.,12.0,0.,12.0,0.,12.0,0.,12.0
1979-07-23 06:06:26.670 ,5,1,0.,12.0,0.,12.0,0.,12.0,0.,12.0
1979-07-23 06:06:38.670 ,5,1,0.,12.0,0.,12.0,0.,12.0,0.,12.0
1979-07-23 06:06:50.670 ,5,0,0.,12.0,0.,12.0,0.,12.0,0.,12.0
1979-07-23 06:07:02.670 ,5,0,0.,12.0,0.,12.0,0.,12.0,0.,12.0
1979-07-23 06:07:14.670 ,4,1,0.,12.0,0.,12.0,0.,12.0,0.,12.0
1979-07-23 06:07:26.670 ,4,1,0.,12.0,0.,12.0,0.,12.0,0.,12.0
1979-07-23 06:07:38.670 ,4,0,0.,12.0,0.,12.0,0.,12.0,0.,12.0
1979-07-23 06:07:50.670 ,4,0,0.,12.0,0.,12.0,0.,12.0,0.,12.0
1979-07-23 06:08:02.670 ,3,1,0.,12.0,0.,12.0,0.,12.0,0.,12.0
1979-07-23 06:08:14.670 ,3,1,0.,12.0,0.,12.0,0.,12.0,0.,12.0
1979-07-23 06:08:26.670 ,3,0,0.,12.0,0.,12.0,0.,12.0,0.,12.0
1979-07-23 06:08:38.670 ,3,0,0.,12.0,0.,12.0,0.,12.0,0.,12.0
1979-07-23 06:08:50.670 ,2,1,0.,12.0,0.,12.0,0.,12.0,0.,12.0
1979-07-23 06:09:02.670 ,2,1,0.,12.0,0.,12.0,0.,12.0,0.,12.0
1979-07-23 06:09:14.670 ,2,0,0.,12.0,0.,12.0,0.,12.0,0.,12.0
1979-07-23 06:09:26.670 ,2,0,0.,12.0,0.,12.0,0.,12.0,0.,12.0
1979-07-23 06:09:38.670 ,1,1,0.,12.0,0.,12.0,0.,12.0,0.,12.0
1979-07-23 06:09:50.670 ,1,1,0.,12.0,0.,12.0,0.,12.0,0.,12.0
1979-07-23 06:10:02.670 ,1,0,0.,12.0,0.,12.0,0.,12.0,0.,12.0
1979-07-23 06:10:14.670 ,1,0,0.,12.0,0.,12.0,0.,12.0,0.,12.0
1979-07-23 06:10:26.670 ,0,1,0.,12.0,0.,12.0,0.,12.0,0.,12.0
1979-07-23 06:10:38.670 ,0,1,0.,12.0,0.,12.0,0.,12.0,0.,12.0
1979-07-23 06:10:50.670 ,0,0,0.,12.0,0.,12.0,0.,12.0,0.,12.0
1979-07-23 06:11:02.670 ,0,0,0.,12.0,0.,12.0,0.,12.0,0.,12.0
1979-07-23 06:11:14.670 ,0,1,0.,12.0,0.,12.0,0.,12.0,0.,12.0
1979-07-23 06:11:26.670 ,0,1,0.,12.0,0.,12.0,0.,12.0,0.,12.0
1979-07-23 06:11:38.670 ,0,0,0.,12.0,0.,12.0,0.,12.0,0.,12.0
1979-07-23 06:11:50.670 ,0,0,0.,12.0,0.,12.0,0.,12.0,0.,12.0
1979-07-23 06:12:02.670 ,1,1,0.,12.0,0.,12.0,0.,12.0,0.,12.0
1979-07-23 06:12:14.670 ,1,1,0.,12.0,0.,12.0,0.,12.0,0.,12.0
1979-07-23 06:12:26.670 ,1,0,0.,12.0,0.,12.0,0.,12.0,0.,12.0
1979-07-23 06:12:38.670 ,1,0,0.,12.0,0.,12.0,0.,12.0,0.,12.0
1979-07-23 06:12:50.670 ,2,1,0.,12.0,0.,12.0,0.,12.0,0.,12.0
1979-07-23 06:13:02.670 ,2,1,0.,12.0,0.,12.0,0.,12.0,0.,12.0
1979-07-23 06:13:14.670 ,2,0,0.,12.0,0.,12.0,0.,12.0,0.,12.0
1979-07-23 06:13:26.670 ,2,0,0.,12.0,0.,12.0,0.,12.0,0.,12.0
1979-07-23 06:13:38.670 ,3,1,0.,12.0,0.,12.0,0.,12.0,0.,12.0
1979-07-23 06:13:50.670 ,3,1,0.,12.0,0.,12.0,0.,12.0,0.,12.0
1979-07-23 06:14:02.670 ,3,0,1.,12.0,0.,12.0,0.,12.0,0.,12.0
1979-07-23 06:14:14.670 ,3,0,0.,12.0,0.,12.0,0.,12.0,0.,12.0
1979-07-23 06:14:26.670 ,4,1,0.,12.0,0.,12.0,0.,12.0,0.,12.0
1979-07-23 06:14:38.670 ,4,1,0.,12.0,0.,12.0,0.,12.0,0.,12.0
1979-07-23 06:14:50.670 ,4,0,0.,12.0,0.,12.0,0.,12.0,0.,12.0
1979-07-23 06:15:02.670 ,4,0,0.,12.0,0.,12.0,0.,12.0,0.,12.0
1979-07-23 06:15:14.670 ,5,1,0.,12.0,0.,12.0,0.,12.0,0.,12.0
1979-07-23 06:15:26.670 ,5,1,0.,12.0,0.,12.0,0.,12.0,0.,12.0
1979-07-23 06:15:38.670 ,5,0,0.,12.0,0.,12.0,0.,12.0,0.,12.0
1979-07-23 06:15:50.670 ,5,0,0.,12.0,0.,12.0,0.,12.0,0.,12.0
1979-07-23 06:16:02.670 ,6,1,0.,12.0,0.,12.0,0.,12.0,0.,12.0
1979-07-23 06:16:14.670 ,6,1,0.,12.0,0.,12.0,0.,12.0,0.,12.0
1979-07-23 06:16:26.670 ,6,0,0.,12.0,0.,12.0,0.,12.0,0.,12.0
1979-07-23 06:16:38.670 ,6,0,0.,12.0,0.,12.0,0.,12.0,0.,12.0
1979-07-23 06:16:50.670 ,7,1,0.,12.0,0.,12.0,0.,12.0,0.,12.0
1979-07-23 06:17:02.670 ,7,1,0.,12.0,0.,12.0,0.,12.0,0.,12.0
1979-07-23 06:17:14.670 ,7,0,0.,12.0,0.,12.0,0.,12.0,0.,12.0
1979-07-23 06:17:26.670 ,7,0,0.,12.0,0.,12.0,0.,12.0,0.,12.0
1979-07-23 06:17:38.670 ,7,1,0.,12.0,0.,12.0,0.,12.0,0.,12.0
1979-07-23 06:17:50.670 ,7,1,0.,12.0,0.,12.0,0.,12.0,0.,12.0
1979-07-23 06:18:02.670 ,7,0,0.,12.0,0.,12.0,0.,12.0,0.,12.0
1979-07-23 06:18:14.670 ,7,0,0.,12.0,0.,12.0,0.,12.0,0.,12.0
1979-07-23 06:18:26.670 ,6,1,0.,12.0,0.,12.0,0.,12.0,0.,12.0
1979-07-23 06:18:38.670 ,6,1,0.,12.0,0.,12.0,0.,12.0,0.,12.0
1979-07-23 06:18:50.670 ,6,0,0.,12.0,0.,12.0,0.,12.0,0.,12.0
1979-07-23 06:19:02.670 ,6,0,0.,12.0,0.,12.0,0.,12.0,0.,12.0
1979-07-23 06:19:14.670 ,5,1,0.,12.0,0.,12.0,0.,12.0,0.,12.0
1979-07-23 06:19:26.670 ,5,1,0.,12.0,0.,12.0,0.,12.0,0.,12.0
1979-07-23 06:19:38.670 ,5,0,0.,12.0,0.,12.0,0.,12.0,0.,12.0
1979-07-23 06:19:50.670 ,5,0,0.,12.0,0.,12.0,0.,12.0,0.,12.0
1979-07-23 06:20:02.670 ,4,1,0.,12.0,0.,12.0,0.,12.0,0.,12.0
1979-07-23 06:20:14.670 ,4,1,0.,12.0,0.,12.0,0.,12.0,0.,12.0
1979-07-23 06:20:26.670 ,4,0,0.,12.0,0.,12.0,0.,12.0,0.,12.0
1979-07-23 06:20:38.670 ,4,0,0.,12.0,0.,12.0,0.,12.0,0.,12.0
1979-07-23 06:20:50.670 ,3,1,0.,12.0,0.,12.0,0.,12.0,0.,12.0
1979-07-23 06:21:02.670 ,3,1,1.,12.0,0.,12.0,0.,12.0,0.,12.0
1979-07-23 06:21:14.670 ,3,0,0.,12.0,0.,12.0,0.,12.0,0.,12.0
1979-07-23 06:21:26.670 ,3,0,0.,12.0,0.,12.0,0.,12.0,0.,12.0
1979-07-23 06:21:38.670 ,2,1,0.,12.0,0.,12.0,0.,12.0,0.,12.0
1979-07-23 06:21:50.670 ,2,1,0.,12.0,0.,12.0,0.,12.0,0.,12.0
1979-07-23 06:22:02.670 ,2,0,0.,12.0,0.,12.0,0.,12.0,0.,12.0
1979-07-23 06:22:14.670 ,2,0,0.,12.0,0.,12.0,0.,12.0,0.,12.0
1979-07-23 06:22:26.670 ,1,1,0.,12.0,0.,12.0,0.,12.0,0.,12.0
1979-07-23 06:22:38.670 ,1,1,0.,12.0,0.,12.0,0.,12.0,0.,12.0
1979-07-23 06:22:50.670 ,1,0,0.,12.0,0.,12.0,0.,12.0,0.,12.0
1979-07-23 06:23:02.670 ,1,0,0.,12.0,0.,12.0,0.,12.0,0.,12.0
1979-07-23 06:23:14.670 ,0,1,0.,12.0,0.,12.0,0.,12.0,0.,12.0
1979-07-23 06:23:26.670 ,0,1,0.,12.0,0.,12.0,0.,12.0,0.,12.0
1979-07-23 06:23:38.670 ,0,0,0.,12.0,0.,12.0,0.,12.0,0.,12.0
1979-07-23 06:23:50.670 ,0,0,1.,12.0,0.,12.0,0.,12.0,0.,12.0
1979-07-23 06:24:02.670 ,0,1,0.,12.0,0.,12.0,0.,12.0,0.,12.0
1979-07-23 06:24:14.670 ,0,1,0.,12.0,0.,12.0,0.,12.0,0.,12.0
1979-07-23 06:24:26.670 ,0,0,0.,12.0,0.,12.0,0.,12.0,0.,12.0
1979-07-23 06:24:38.670 ,0,0,0.,12.0,0.,12.0,0.,12.0,0.,12.0
1979-07-23 06:24:50.670 ,1,1,0.,12.0,0.,12.0,0.,12.0,0.,12.0
1979-07-23 06:25:02.670 ,1,1,0.,12.0,0.,12.0,0.,12.0,0.,12.0
1979-07-23 06:25:14.670 ,1,0,0.,12.0,0.,12.0,0.,12.0,0.,12.0
1979-07-23 06:25:26.670 ,1,0,0.,12.0,0.,12.0,0.,12.0,0.,12.0
1979-07-23 06:25:38.670 ,2,1,0.,12.0,0.,12.0,0.,12.0,0.,12.0
1979-07-23 06:25:50.670 ,2,1,0.,12.0,0.,12.0,0.,12.0,0.,12.0
1979-07-23 06:26:02.670 ,2,0,0.,12.0,0.,12.0,0.,12.0,0.,12.0
1979-07-23 06:26:14.670 ,2,0,0.,12.0,0.,12.0,0.,12.0,0.,12.0
1979-07-23 06:26:26.670 ,3,1,0.,12.0,0.,12.0,0.,12.0,0.,12.0
1979-07-23 06:26:38.670 ,3,1,0.,12.0,0.,12.0,0.,12.0,0.,12.0
1979-07-23 06:26:50.670 ,3,0,0.,12.0,0.,12.0,0.,12.0,0.,12.0
1979-07-23 06:27:02.670 ,3,0,0.,12.0,0.,12.0,0.,12.0,0.,12.0
1979-07-23 06:27:14.670 ,4,1,0.,12.0,0.,12.0,0.,12.0,0.,12.0
1979-07-23 06:27:26.670 ,4,1,0.,12.0,0.,12.0,0.,12.0,0.,12.0
1979-07-23 06:27:38.670 ,4,0,0.,12.0,0.,12.0,0.,12.0,0.,12.0
1979-07-23 06:27:50.670 ,4,0,0.,12.0,0.,12.0,0.,12.0,0.,12.0
1979-07-23 06:28:02.670 ,5,1,0.,12.0,0.,12.0,0.,12.0,0.,12.0
1979-07-23 06:28:14.670 ,5,1,1.,12.0,0.,12.0,0.,12.0,0.,12.0
1979-07-23 06:28:26.670 ,5,0,0.,12.0,0.,12.0,0.,12.0,0.,12.0
1979-07-23 06:28:38.670 ,5,0,0.,12.0,0.,12.0,0.,12.0,0.,12.0
1979-07-23 06:28:50.670 ,6,1,0.,12.0,0.,12.0,0.,12.0,0.,12.0
1979-07-23 06:29:02.670 ,6,1,0.,12.0,0.,12.0,0.,12.0,0.,12.0
1979-07-23 06:29:14.670 ,6,0,0.,12.0,0.,12.0,0.,12.0,0.,12.0
1979-07-23 06:29:26.670 ,6,0,0.,12.0,0.,12.0,0.,12.0,0.,12.0
1979-07-23 06:29:38.670 ,7,1,0.,12.0,0.,12.0,0.,12.0,0.,12.0
1979-07-23 06:29:50.670 ,7,1,0.,12.0,0.,12.0,0.,12.0,0.,12.0
1979-07-23 06:30:02.670 ,7,0,0.,12.0,0.,12.0,0.,12.0,0.,12.0
1979-07-23 06:30:14.670 ,7,0,0.,12.0,0.,12.0,0.,12.0,0.,12.0
1979-07-23 06:30:26.670 ,7,1,0.,12.0,0.,12.0,0.,12.0,0.,12.0
1979-07-23 06:30:38.670 ,7,1,0.,12.0,0.,12.0,0.,12.0,0.,12.0
1979-07-23 06:30:50.670 ,7,0,0.,12.0,0.,12.0,0.,12.0,0.,12.0
1979-07-23 06:31:02.670 ,7,0,0.,12.0,0.,12.0,0.,12.0,0.,12.0
1979-07-23 06:31:14.670 ,6,1,0.,12.0,0.,12.0,0.,12.0,0.,12.0
1979-07-23 06:31:26.670 ,6,1,0.,12.0,0.,12.0,0.,12.0,0.,12.0
1979-07-23 06:31:38.670 ,6,0,0.,12.0,0.,12.0,0.,12.0,0.,12.0
1979-07-23 06:31:50.670 ,6,0,0.,12.0,0.,12.0,0.,12.0,0.,12.0
1979-07-23 06:32:02.670 ,5,1,0.,12.0,0.,12.0,0.,12.0,0.,12.0
1979-07-23 06:32:14.670 ,5,1,0.,12.0,0.,12.0,0.,12.0,0.,12.0
1979-07-23 06:32:26.670 ,5,0,0.,12.0,0.,12.0,0.,12.0,0.,12.0
1979-07-23 06:32:38.670 ,5,0,0.,12.0,0.,12.0,0.,12.0,0.,12.0
1979-07-23 06:32:50.670 ,4,1,0.,12.0,0.,12.0,0.,12.0,0.,12.0
1979-07-23 06:33:02.670 ,4,1,0.,12.0,0.,12.0,0.,12.0,0.,12.0
1979-07-23 06:33:14.670 ,4,0,1.,12.0,0.,12.0,0.,12.0,0.,12.0
1979-07-23 06:33:26.670 ,4,0,0.,12.0,0.,12.0,0.,12.0,0.,12.0
1979-07-23 06:33:38.670 ,3,1,0.,12.0,0.,12.0,0.,12.0,0.,12.0
1979-07-23 06:33:50.670 ,3,1,0.,12.0,0.,12.0,0.,12.0,0.,12.0
1979-07-23 06:34:02.670 ,3,0,0.,12.0,0.,12.0,0.,12.0,0.,12.0
1979-07-23 06:34:14.670 ,3,0,0.,12.0,0.,12.0,0.,12.0,0.,12.0
1979-07-23 06:34:26.670 ,2,1,0.,12.0,0.,12.0,0.,12.0,0.,12.0
1979-07-23 06:34:38.670 ,2,1,0.,12.0,0.,12.0,0.,12.0,0.,12.0
1979-07-23 06:34:50.670 ,2,0,0.,12.0,0.,12.0,0.,12.0,0.,12.0
1979-07-23 06:35:02.670 ,2,0,0.,12.0,0.,12.0,0.,12.0,0.,12.0
1979-07-23 06:35:14.670 ,1,1,1.,12.0,0.,12.0,0.,12.0,0.,12.0
1979-07-23 06:35:26.670 ,1,1,0.,12.0,0.,12.0,0.,12.0,0.,12.0
1979-07-23 06:35:38.670 ,1,0,0.,12.0,0.,12.0,0.,12.0,0.,12.0
1979-07-23 06:35:50.670 ,1,0,0.,12.0,0.,12.0,0.,12.0,0.,12.0
1979-07-23 06:36:02.670 ,0,1,0.,12.0,0.,12.0,0.,12.0,0.,12.0
1979-07-23 06:36:14.670 ,0,1,0.,12.0,0.,12.0,0.,12.0,0.,12.0
1979-07-23 06:36:26.670 ,0,0,0.,12.0,0.,12.0,0.,12.0,0.,12.0
1979-07-23 06:36:38.670 ,0,0,0.,12.0,0.,12.0,0.,12.0,0.,12.0
1979-07-23 06:36:50.670 ,0,1,0.,12.0,0.,12.0,0.,12.0,0.,12.0
1979-07-23 06:37:02.670 ,0,1,0.,12.0,0.,12.0,0.,12.0,0.,12.0
1979-07-23 06:37:14.670 ,0,0,0.,12.0,0.,12.0,0.,12.0,0.,12.0
1979-07-23 06:37:26.670 ,0,0,0.,12.0,0.,12.0,0.,12.0,0.,12.0
1979-07-23 06:37:38.670 ,1,1,0.,12.0,0.,12.0,0.,12.0,0.,12.0
1979-07-23 06:37:50.670 ,1,1,0.,12.0,0.,12.0,0.,12.0,0.,12.0
1979-07-23 06:38:02.670 ,1,0,1.,12.0,0.,12.0,0.,12.0,0.,12.0
1979-07-23 06:38:14.670 ,1,0,0.,12.0,0.,12.0,0.,12.0,0.,12.0
1979-07-23 06:38:26.670 ,2,1,0.,12.0,0.,12.0,0.,12.0,0.,12.0
1979-07-23 06:38:38.670 ,2,1,1.,12.0,0.,12.0,0.,12.0,0.,12.0
1979-07-23 06:38:50.670 ,2,0,1.,12.0,0.,12.0,0.,12.0,0.,12.0
1979-07-23 06:39:02.670 ,2,0,0.,12.0,0.,12.0,0.,12.0,0.,12.0
1979-07-23 06:39:14.670 ,3,1,0.,12.0,0.,12.0,0.,12.0,0.,12.0
1979-07-23 06:39:26.670 ,3,1,0.,12.0,0.,12.0,0.,12.0,0.,12.0
1979-07-23 06:39:38.670 ,3,0,0.,12.0,0.,12.0,0.,12.0,0.,12.0
1979-07-23 06:39:50.670 ,3,0,0.,12.0,0.,12.0,0.,12.0,0.,12.0
1979-07-23 06:40:02.670 ,4,1,0.,12.0,0.,12.0,0.,12.0,0.,12.0
1979-07-23 06:40:14.670 ,4,1,0.,12.0,0.,12.0,0.,12.0,0.,12.0
1979-07-23 06:40:26.670 ,4,0,0.,12.0,0.,12.0,0.,12.0,0.,12.0
1979-07-23 06:40:38.670 ,4,0,0.,12.0,0.,12.0,0.,12.0,0.,12.0
1979-07-23 06:40:50.670 ,5,1,0.,12.0,0.,12.0,0.,12.0,0.,12.0
1979-07-23 06:41:02.670 ,5,1,0.,12.0,0.,12.0,0.,12.0,0.,12.0
1979-07-23 06:41:14.670 ,5,0,0.,12.0,0.,12.0,0.,12.0,0.,12.0
1979-07-23 06:41:26.670 ,5,0,0.,12.0,0.,12.0,0.,12.0,0.,12.0
1979-07-23 06:41:38.670 ,6,1,0.,12.0,0.,12.0,0.,12.0,0.,12.0
1979-07-23 06:41:50.670 ,6,1,0.,12.0,0.,12.0,0.,12.0,0.,12.0
1979-07-23 06:42:02.670 ,6,0,0.,12.0,0.,12.0,0.,12.0,0.,12.0
1979-07-23 06:42:14.670 ,6,0,0.,12.0,0.,12.0,0.,12.0,0.,12.0
1979-07-23 06:42:26.670 ,7,0,0.,12.0,0.,12.0,0.,12.0,0.,12.0
1979-07-23 06:42:38.670 ,7,0,0.,12.0,0.,12.0,0.,12.0,0.,12.0
1979-07-23 06:42:50.670 ,0,0,0.,12.0,0.,12.0,0.,12.0,0.,12.0
1979-07-23 06:43:02.670 ,0,0,,0,,0,,0,,0
1979-07-23 06:42:59.670 ,7,0,,0,,0,,0,,0
1979-07-23 06:43:11.670 ,7,0,0.,12.0,0.,12.0,0.,12.0,0.,12.0
1979-07-23 06:43:14.670 ,4,1,0.,12.0,0.,12.0,0.,12.0,0.,12.0
1979-07-23 06:43:26.670 ,4,1,0.,12.0,0.,12.0,0.,12.0,0.,12.0
1979-07-23 06:43:38.670 ,0,1,0.,12.0,0.,12.0,0.,12.0,0.,12.0
1979-07-23 06:43:50.670 ,0,1,0.,12.0,0.,12.0,0.,12.0,0.,12.0
1979-07-23 06:44:02.670 ,3,1,0.,12.0,0.,12.0,0.,12.0,0.,12.0
1979-07-23 06:44:14.670 ,3,1,0.,12.0,0.,12.0,0.,12.0,0.,12.0
1979-07-23 06:44:26.670 ,7,1,0.,12.0,0.,12.0,0.,12.0,0.,12.0
1979-07-23 06:44:38.670 ,7,1,0.,12.0,0.,12.0,0.,12.0,0.,12.0
1979-07-23 06:44:50.670 ,4,1,0.,12.0,0.,12.0,0.,12.0,0.,12.0
1979-07-23 06:45:02.670 ,4,1,0.,12.0,0.,12.0,0.,12.0,0.,12.0
1979-07-23 06:45:14.670 ,0,1,0.,12.0,0.,12.0,0.,12.0,0.,12.0
1979-07-23 06:45:26.670 ,0,1,0.,12.0,0.,12.0,0.,12.0,0.,12.0
1979-07-23 06:45:38.670 ,3,1,0.,12.0,0.,12.0,0.,12.0,0.,12.0
1979-07-23 06:45:50.670 ,3,1,0.,12.0,0.,12.0,0.,12.0,0.,12.0
1979-07-23 06:46:02.670 ,7,1,0.,12.0,0.,12.0,0.,12.0,0.,12.0
1979-07-23 06:46:14.670 ,7,1,0.,12.0,0.,12.0,0.,12.0,0.,12.0
1979-07-23 06:46:26.670 ,4,1,0.,12.0,0.,12.0,0.,12.0,0.,12.0
1979-07-23 06:46:38.670 ,4,1,0.,12.0,0.,12.0,0.,12.0,1.,12.0
1979-07-23 06:46:50.670 ,0,1,0.,12.0,0.,12.0,0.,12.0,0.,12.0
1979-07-23 06:47:02.670 ,0,1,0.,12.0,0.,12.0,0.,12.0,1.,12.0
1979-07-23 06:47:14.670 ,3,1,0.,12.0,0.,12.0,0.,12.0,0.,12.0
1979-07-23 06:47:26.670 ,3,1,0.,12.0,0.,12.0,0.,12.0,0.,12.0
1979-07-23 06:47:38.670 ,7,1,0.,12.0,0.,12.0,0.,12.0,0.,12.0
1979-07-23 06:47:50.670 ,7,1,0.,12.0,0.,12.0,0.,12.0,0.,12.0
1979-07-23 06:48:02.670 ,4,1,0.,12.0,0.,12.0,0.,12.0,0.,12.0
1979-07-23 06:48:14.670 ,4,1,0.,12.0,0.,12.0,0.,12.0,0.,12.0
1979-07-23 06:48:26.670 ,0,1,0.,12.0,0.,12.0,0.,12.0,0.,12.0
1979-07-23 06:48:38.670 ,0,1,0.,12.0,0.,12.0,0.,12.0,0.,12.0
1979-07-23 06:48:50.670 ,3,1,0.,12.0,0.,12.0,0.,12.0,0.,12.0
1979-07-23 06:49:02.670 ,3,1,0.,12.0,0.,12.0,0.,12.0,0.,12.0
1979-07-23 06:49:14.670 ,7,1,0.,12.0,0.,12.0,0.,12.0,0.,12.0
1979-07-23 06:49:26.670 ,7,1,0.,12.0,0.,12.0,0.,12.0,0.,12.0
1979-07-23 06:49:38.670 ,4,1,0.,12.0,0.,12.0,0.,12.0,0.,12.0
1979-07-23 06:49:50.670 ,4,1,0.,12.0,0.,12.0,0.,12.0,0.,12.0
1979-07-23 06:50:02.670 ,0,1,0.,12.0,0.,12.0,0.,12.0,0.,12.0
1979-07-23 06:50:14.670 ,0,1,0.,12.0,0.,12.0,0.,12.0,0.,12.0
1979-07-23 06:50:26.670 ,3,1,0.,12.0,0.,12.0,0.,12.0,0.,12.0
1979-07-23 06:50:38.670 ,3,1,0.,12.0,0.,12.0,0.,12.0,0.,12.0
1979-07-23 06:50:50.670 ,7,1,0.,12.0,0.,12.0,0.,12.0,0.,12.0
1979-07-23 06:51:02.670 ,7,1,0.,12.0,0.,12.0,0.,12.0,0.,12.0
1979-07-23 06:51:14.670 ,4,1,0.,12.0,0.,12.0,0.,12.0,0.,12.0
1979-07-23 06:51:26.670 ,4,1,0.,12.0,0.,12.0,0.,12.0,0.,12.0
1979-07-23 06:51:38.670 ,0,1,0.,12.0,0.,12.0,0.,12.0,0.,12.0
1979-07-23 06:51:50.670 ,0,1,0.,12.0,0.,12.0,0.,12.0,0.,12.0
1979-07-23 06:52:02.670 ,3,1,0.,12.0,0.,12.0,0.,12.0,0.,12.0
1979-07-23 06:52:14.670 ,3,1,0.,12.0,0.,12.0,0.,12.0,0.,12.0
1979-07-23 06:52:26.670 ,7,1,0.,12.0,0.,12.0,0.,12.0,0.,12.0
1979-07-23 06:52:38.670 ,7,1,0.,12.0,0.,12.0,0.,12.0,0.,12.0
1979-07-23 06:52:50.670 ,4,1,0.,12.0,0.,12.0,0.,12.0,0.,12.0
1979-07-23 06:53:02.670 ,4,1,0.,12.0,0.,12.0,0.,12.0,0.,12.0
1979-07-23 06:53:14.670 ,0,1,0.,12.0,0.,12.0,0.,12.0,0.,12.0
1979-07-23 06:53:26.670 ,0,1,0.,12.0,0.,12.0,0.,12.0,0.,12.0
1979-07-23 06:53:38.670 ,0,0,0.,12.0,0.,12.0,0.,12.0,0.,12.0
1979-07-23 06:53:50.670 ,0,0,0.,12.0,0.,12.0,0.,12.0,0.,12.0
1979-07-23 06:54:02.670 ,0,0,0.,12.0,0.,12.0,0.,12.0,0.,12.0
1979-07-23 06:54:14.670 ,0,0,0.,12.0,0.,12.0,0.,12.0,0.,12.0
1979-07-23 06:54:26.670 ,5,1,0.,12.0,0.,12.0,0.,12.0,0.,12.0
1979-07-23 06:54:38.670 ,5,1,0.,12.0,0.,12.0,0.,12.0,0.,12.0
1979-07-23 06:54:50.670 ,5,0,0.,12.0,0.,12.0,0.,12.0,0.,12.0
1979-07-23 06:55:02.670 ,5,0,0.,12.0,0.,12.0,0.,12.0,0.,12.0
1979-07-23 06:55:14.670 ,4,1,0.,12.0,0.,12.0,0.,12.0,0.,12.0
1979-07-23 06:55:26.670 ,4,1,0.,12.0,0.,12.0,0.,12.0,0.,12.0
1979-07-23 06:55:38.670 ,4,0,0.,12.0,0.,12.0,0.,12.0,0.,12.0
1979-07-23 06:55:50.670 ,4,0,0.,12.0,0.,12.0,0.,12.0,0.,12.0
1979-07-23 06:56:02.670 ,3,1,0.,12.0,0.,12.0,0.,12.0,0.,12.0
1979-07-23 06:56:14.670 ,3,1,0.,12.0,0.,12.0,0.,12.0,0.,12.0
1979-07-23 06:56:26.670 ,3,0,0.,12.0,0.,12.0,0.,12.0,0.,12.0
1979-07-23 06:56:38.670 ,3,0,0.,12.0,0.,12.0,0.,12.0,0.,12.0
1979-07-23 06:56:50.670 ,2,1,0.,12.0,0.,12.0,0.,12.0,0.,12.0
1979-07-23 06:57:02.670 ,2,1,0.,12.0,0.,12.0,0.,12.0,0.,12.0
1979-07-23 06:57:14.670 ,2,0,0.,12.0,0.,12.0,0.,12.0,0.,12.0
1979-07-23 06:57:26.670 ,2,0,0.,12.0,0.,12.0,0.,12.0,0.,12.0
1979-07-23 06:57:38.670 ,1,1,0.,12.0,0.,12.0,0.,12.0,0.,12.0
1979-07-23 06:57:50.670 ,1,1,0.,12.0,0.,12.0,0.,12.0,0.,12.0
1979-07-23 06:58:02.670 ,1,0,0.,12.0,0.,12.0,0.,12.0,0.,12.0
1979-07-23 06:58:14.670 ,1,0,0.,12.0,0.,12.0,0.,12.0,0.,12.0
1979-07-23 06:58:26.670 ,0,1,0.,12.0,0.,12.0,0.,12.0,0.,12.0
1979-07-23 06:58:38.670 ,0,1,0.,12.0,0.,12.0,0.,12.0,0.,12.0
1979-07-23 06:58:50.670 ,0,0,0.,12.0,0.,12.0,0.,12.0,0.,12.0
1979-07-23 06:59:02.670 ,0,0,0.,12.0,0.,12.0,0.,12.0,0.,12.0
1979-07-23 06:59:14.670 ,0,1,0.,12.0,0.,12.0,0.,12.0,0.,12.0
1979-07-23 06:59:26.670 ,0,1,1.,12.0,0.,12.0,0.,12.0,0.,12.0
1979-07-23 06:59:38.670 ,0,0,0.,12.0,0.,12.0,0.,12.0,0.,12.0
1979-07-23 06:59:50.670 ,0,0,0.,12.0,0.,12.0,0.,12.0,0.,12.0
1979-07-23 07:00:02.670 ,1,1,0.,12.0,0.,12.0,0.,12.0,0.,12.0
1979-07-23 07:00:14.670 ,1,1,0.,12.0,0.,12.0,0.,12.0,0.,12.0
1979-07-23 07:00:26.670 ,1,0,0.,12.0,0.,12.0,0.,12.0,0.,12.0
1979-07-23 07:00:38.670 ,1,0,0.,12.0,0.,12.0,0.,12.0,0.,12.0
1979-07-23 07:00:50.670 ,2,1,0.,12.0,0.,12.0,0.,12.0,0.,12.0
1979-07-23 07:01:02.670 ,2,1,0.,12.0,0.,12.0,0.,12.0,0.,12.0
1979-07-23 07:01:14.670 ,2,0,0.,12.0,0.,12.0,0.,12.0,0.,12.0
1979-07-23 07:01:26.670 ,2,0,0.,12.0,0.,12.0,0.,12.0,0.,12.0
1979-07-23 07:01:38.670 ,3,1,0.,12.0,0.,12.0,0.,12.0,0.,12.0
1979-07-23 07:01:50.670 ,3,1,0.,12.0,0.,12.0,0.,12.0,0.,12.0
1979-07-23 07:02:02.670 ,3,0,0.,12.0,0.,12.0,0.,12.0,0.,12.0
1979-07-23 07:02:14.670 ,3,0,0.,12.0,0.,12.0,0.,12.0,0.,12.0
1979-07-23 07:02:26.670 ,4,1,0.,12.0,0.,12.0,0.,12.0,0.,12.0
1979-07-23 07:02:38.670 ,4,1,0.,12.0,0.,12.0,0.,12.0,0.,12.0
1979-07-23 07:02:50.670 ,4,0,0.,12.0,0.,12.0,0.,12.0,0.,12.0
1979-07-23 07:03:02.670 ,4,0,0.,12.0,0.,12.0,0.,12.0,0.,12.0
1979-07-23 07:03:14.670 ,5,1,0.,12.0,0.,12.0,0.,12.0,0.,12.0
1979-07-23 07:03:26.670 ,5,1,0.,12.0,0.,12.0,0.,12.0,0.,12.0
1979-07-23 07:03:38.670 ,5,0,0.,12.0,0.,12.0,0.,12.0,0.,12.0
1979-07-23 07:03:50.670 ,5,0,0.,12.0,0.,12.0,0.,12.0,0.,12.0
1979-07-23 07:04:02.670 ,6,1,0.,12.0,0.,12.0,0.,12.0,0.,12.0
1979-07-23 07:04:14.670 ,6,1,0.,12.0,0.,12.0,0.,12.0,0.,12.0
1979-07-23 07:04:26.670 ,6,0,0.,12.0,0.,12.0,0.,12.0,0.,12.0
1979-07-23 07:04:38.670 ,6,0,0.,12.0,0.,12.0,0.,12.0,0.,12.0
1979-07-23 07:04:50.670 ,7,1,0.,12.0,0.,12.0,0.,12.0,0.,12.0
1979-07-23 07:05:02.670 ,7,1,0.,12.0,0.,12.0,0.,12.0,0.,12.0
1979-07-23 07:05:14.670 ,7,0,0.,12.0,0.,12.0,0.,12.0,0.,12.0
1979-07-23 07:05:26.670 ,7,0,0.,12.0,0.,12.0,0.,12.0,0.,12.0
1979-07-23 07:05:38.670 ,7,1,0.,12.0,0.,12.0,0.,12.0,0.,12.0
1979-07-23 07:05:50.670 ,7,1,0.,12.0,0.,12.0,0.,12.0,0.,12.0
1979-07-23 07:06:02.670 ,7,0,0.,12.0,0.,12.0,0.,12.0,0.,12.0
1979-07-23 07:06:14.670 ,7,0,0.,12.0,0.,12.0,0.,12.0,0.,12.0
1979-07-23 07:06:26.670 ,6,1,0.,12.0,0.,12.0,0.,12.0,0.,12.0
1979-07-23 07:06:38.670 ,6,1,0.,12.0,0.,12.0,0.,12.0,0.,12.0
1979-07-23 07:06:50.670 ,6,0,0.,12.0,0.,12.0,0.,12.0,0.,12.0
1979-07-23 07:07:02.670 ,6,0,0.,12.0,0.,12.0,0.,12.0,0.,12.0
1979-07-23 07:07:14.670 ,5,1,0.,12.0,0.,12.0,0.,12.0,0.,12.0
1979-07-23 07:07:26.670 ,5,1,0.,12.0,0.,12.0,0.,12.0,0.,12.0
1979-07-23 07:07:38.670 ,5,0,0.,12.0,0.,12.0,0.,12.0,0.,12.0
1979-07-23 07:07:50.670 ,5,0,0.,12.0,0.,12.0,0.,12.0,0.,12.0
1979-07-23 07:08:02.670 ,4,1,0.,12.0,0.,12.0,0.,12.0,0.,12.0
1979-07-23 07:08:14.670 ,4,1,0.,12.0,0.,12.0,0.,12.0,0.,12.0
1979-07-23 07:08:26.670 ,4,0,0.,12.0,0.,12.0,0.,12.0,0.,12.0
1979-07-23 07:08:38.670 ,4,0,0.,12.0,0.,12.0,0.,12.0,0.,12.0
1979-07-23 07:08:50.670 ,3,1,0.,12.0,0.,12.0,0.,12.0,0.,12.0
1979-07-23 07:09:02.670 ,3,1,0.,12.0,0.,12.0,0.,12.0,0.,12.0
1979-07-23 07:09:14.670 ,3,0,0.,12.0,0.,12.0,0.,12.0,0.,12.0
1979-07-23 07:09:26.670 ,3,0,0.,12.0,0.,12.0,0.,12.0,0.,12.0
1979-07-23 07:09:38.670 ,2,1,0.,12.0,0.,12.0,0.,12.0,0.,12.0
1979-07-23 07:09:50.670 ,2,1,0.,12.0,0.,12.0,0.,12.0,0.,12.0
1979-07-23 07:10:02.670 ,2,0,0.,12.0,0.,12.0,0.,12.0,0.,12.0
1979-07-23 07:10:14.670 ,2,0,0.,12.0,0.,12.0,0.,12.0,0.,12.0
1979-07-23 07:10:26.670 ,1,1,0.,12.0,0.,12.0,0.,12.0,0.,12.0
1979-07-23 07:10:38.670 ,1,1,0.,12.0,0.,12.0,0.,12.0,0.,12.0
1979-07-23 07:10:50.670 ,1,0,0.,12.0,0.,12.0,0.,12.0,0.,12.0
1979-07-23 07:11:02.670 ,1,0,0.,12.0,0.,12.0,0.,12.0,0.,12.0
1979-07-23 07:11:14.670 ,0,1,1.,12.0,0.,12.0,0.,12.0,0.,12.0
1979-07-23 07:11:26.670 ,0,1,0.,12.0,0.,12.0,0.,12.0,0.,12.0
1979-07-23 07:11:38.670 ,0,0,0.,12.0,0.,12.0,0.,12.0,0.,12.0
1979-07-23 07:11:50.670 ,0,0,0.,12.0,0.,12.0,0.,12.0,0.,12.0
1979-07-23 07:12:02.670 ,0,1,0.,12.0,0.,12.0,0.,12.0,0.,12.0
1979-07-23 07:12:14.670 ,0,1,0.,12.0,0.,12.0,0.,12.0,0.,12.0
1979-07-23 07:12:26.670 ,0,0,0.,12.0,0.,12.0,0.,12.0,0.,12.0
1979-07-23 07:12:38.670 ,0,0,0.,12.0,0.,12.0,0.,12.0,0.,12.0
1979-07-23 07:12:50.670 ,1,1,0.,12.0,0.,12.0,0.,12.0,0.,12.0
1979-07-23 07:13:02.670 ,1,1,0.,12.0,0.,12.0,0.,12.0,0.,12.0
1979-07-23 07:13:14.670 ,1,0,0.,12.0,0.,12.0,0.,12.0,0.,12.0
1979-07-23 07:13:26.670 ,1,0,0.,12.0,0.,12.0,0.,12.0,0.,12.0
1979-07-23 07:13:38.670 ,2,1,0.,12.0,0.,12.0,0.,12.0,0.,12.0
1979-07-23 07:13:50.670 ,2,1,0.,12.0,0.,12.0,0.,12.0,0.,12.0
1979-07-23 07:14:02.670 ,2,0,0.,12.0,0.,12.0,0.,12.0,0.,12.0
1979-07-23 07:14:14.670 ,2,0,0.,12.0,0.,12.0,0.,12.0,0.,12.0
1979-07-23 07:14:26.670 ,3,1,0.,12.0,0.,12.0,0.,12.0,1.,12.0
1979-07-23 07:14:38.670 ,3,1,0.,12.0,0.,12.0,0.,12.0,0.,12.0
1979-07-23 07:14:50.670 ,3,0,1.,12.0,0.,12.0,0.,12.0,0.,12.0
1979-07-23 07:15:02.670 ,3,0,0.,12.0,0.,12.0,0.,12.0,0.,12.0
1979-07-23 07:15:14.670 ,4,1,0.,12.0,0.,12.0,0.,12.0,0.,12.0
1979-07-23 07:15:26.670 ,4,1,0.,12.0,0.,12.0,0.,12.0,0.,12.0
1979-07-23 07:15:38.670 ,4,0,0.,12.0,0.,12.0,0.,12.0,0.,12.0
1979-07-23 07:15:50.670 ,4,0,0.,12.0,0.,12.0,0.,12.0,0.,12.0
1979-07-23 07:16:02.670 ,5,1,0.,12.0,0.,12.0,0.,12.0,0.,12.0
1979-07-23 07:16:14.670 ,5,1,0.,12.0,0.,12.0,0.,12.0,0.,12.0
1979-07-23 07:16:26.670 ,5,0,0.,12.0,0.,12.0,0.,12.0,0.,12.0
1979-07-23 07:16:38.670 ,5,0,0.,12.0,0.,12.0,0.,12.0,0.,12.0
1979-07-23 07:16:50.670 ,6,1,0.,12.0,0.,12.0,0.,12.0,0.,12.0
1979-07-23 07:17:02.670 ,6,1,0.,12.0,0.,12.0,0.,12.0,0.,12.0